EASY45 EDDF-EGKK

Flight info

Callsign EASY45
Flight time 1h 7m
Altitude 34000
Route SOBRA2L/18 SOBRA Y180 BITBU Y181 DEMUL M624 BUB L608 DENUT L610 TEBRA TEBRA2G
Aircraft 737/M-V/N

Departure

Time 2026-04-15 12:44
Airport Frankfurt Main Airport (EDDF)

Arrival

Time 2026-04-15 13:52
Airport London Gatwick Airport (EGKK)
Time Latitude Longitude Altitude Speed Heading
2026-04-15 12:18 50.04641 8.56662 361 ft 0 kts 113°
2026-04-15 12:32 50.04647 8.56641 362 ft 3 kts 116°
2026-04-15 12:32 50.04656 8.56613 361 ft 3 kts 121°
2026-04-15 12:32 50.04667 8.56587 363 ft 3 kts 128°
2026-04-15 12:32 50.04681 8.56564 360 ft 3 kts 143°
2026-04-15 12:33 50.04696 8.56550 362 ft 3 kts 181°
2026-04-15 12:33 50.04705 8.56552 363 ft 2 kts 205°
2026-04-15 12:36 50.04673 8.56524 357 ft 9 kts 216°
2026-04-15 12:36 50.04639 8.56432 361 ft 13 kts 250°
2026-04-15 12:36 50.04602 8.56271 360 ft 18 kts 250°
2026-04-15 12:37 50.04560 8.56096 359 ft 17 kts 249°
2026-04-15 12:37 50.04492 8.55981 360 ft 14 kts 199°
2026-04-15 12:37 50.04393 8.55930 357 ft 15 kts 194°
2026-04-15 12:37 50.04293 8.55957 358 ft 14 kts 163°
2026-04-15 12:38 50.04226 8.55880 356 ft 13 kts 246°
2026-04-15 12:38 50.04196 8.55758 361 ft 11 kts 250°
2026-04-15 12:38 50.04174 8.55661 360 ft 9 kts 250°
2026-04-15 12:38 50.04150 8.55561 362 ft 11 kts 249°
2026-04-15 12:39 50.04114 8.55417 362 ft 17 kts 249°
2026-04-15 12:39 50.04069 8.55233 365 ft 20 kts 250°
2026-04-15 12:39 50.04017 8.55007 364 ft 24 kts 250°
2026-04-15 12:39 50.03955 8.54744 362 ft 28 kts 250°
2026-04-15 12:40 50.03886 8.54457 363 ft 28 kts 249°
2026-04-15 12:40 50.03818 8.54269 365 ft 17 kts 238°
2026-04-15 12:40 50.03772 8.54108 367 ft 16 kts 248°
2026-04-15 12:40 50.03732 8.53936 366 ft 18 kts 250°
2026-04-15 12:41 50.03687 8.53749 366 ft 20 kts 249°
2026-04-15 12:41 50.03636 8.53543 366 ft 20 kts 249°
2026-04-15 12:41 50.03585 8.53336 370 ft 21 kts 250°
2026-04-15 12:41 50.03536 8.53125 366 ft 21 kts 250°
2026-04-15 12:42 50.03487 8.52924 372 ft 18 kts 249°
2026-04-15 12:42 50.03446 8.52770 379 ft 13 kts 247°
2026-04-15 12:42 50.03404 8.52641 380 ft 14 kts 230°
2026-04-15 12:42 50.03301 8.52594 376 ft 11 kts 179°
2026-04-15 12:43 50.03291 8.52595 375 ft 1 kts 179°
2026-04-15 12:43 50.03236 8.52595 373 ft 25 kts 179°
2026-04-15 12:43 50.02827 8.52600 367 ft 90 kts 179°
2026-04-15 12:43 50.02016 8.52610 357 ft 141 kts 179°
2026-04-15 12:44 50.00914 8.52624 424 ft 168 kts 179°
2026-04-15 12:44 49.99759 8.52638 972 ft 161 kts 179°
2026-04-15 12:44 49.98657 8.52646 1531 ft 157 kts 179°
2026-04-15 12:44 49.97563 8.52633 1965 ft 157 kts 179°
2026-04-15 12:45 49.96499 8.52643 2475 ft 152 kts 178°
2026-04-15 12:45 49.95442 8.52656 2903 ft 154 kts 177°
2026-04-15 12:45 49.94376 8.52719 3413 ft 151 kts 175°
2026-04-15 12:45 49.93344 8.52831 3876 ft 148 kts 174°
2026-04-15 12:46 49.92299 8.52939 4258 ft 153 kts 174°
2026-04-15 12:46 49.91239 8.53076 4730 ft 152 kts 173°
2026-04-15 12:46 49.90221 8.53214 5324 ft 145 kts 172°
2026-04-15 12:46 49.89173 8.53444 5551 ft 167 kts 172°
2026-04-15 12:47 49.87941 8.53655 5342 ft 188 kts 175°
2026-04-15 12:47 49.86593 8.53422 5890 ft 202 kts 198°
2026-04-15 12:47 49.85269 8.52647 6756 ft 204 kts 202°
2026-04-15 12:47 49.83916 8.51708 7309 ft 221 kts 205°
2026-04-15 12:48 49.82462 8.50712 7893 ft 236 kts 202°
2026-04-15 12:48 49.80883 8.49798 8525 ft 246 kts 199°
2026-04-15 12:48 49.79246 8.48916 9171 ft 254 kts 200°
2026-04-15 12:48 49.77582 8.47838 9833 ft 265 kts 216°
2026-04-15 12:49 49.76325 8.45698 10504 ft 276 kts 242°
2026-04-15 12:49 49.75839 8.42783 11166 ft 288 kts 270°
2026-04-15 12:49 49.76155 8.39722 11817 ft 298 kts 282°
2026-04-15 12:49 49.76696 8.36574 12485 ft 308 kts 285°
2026-04-15 12:50 49.77270 8.33327 13162 ft 317 kts 283°
2026-04-15 12:50 49.77805 8.29970 13844 ft 325 kts 283°
2026-04-15 12:50 49.78338 8.26520 14473 ft 333 kts 283°
2026-04-15 12:50 49.78901 8.22999 15090 ft 339 kts 283°
2026-04-15 12:51 49.79483 8.19430 15700 ft 344 kts 283°
2026-04-15 12:51 49.80060 8.15826 16349 ft 347 kts 283°
2026-04-15 12:51 49.80636 8.12189 16987 ft 350 kts 283°
2026-04-15 12:51 49.81218 8.08515 17643 ft 353 kts 283°
2026-04-15 12:52 49.81810 8.04800 18307 ft 357 kts 283°
2026-04-15 12:52 49.82406 8.01042 18911 ft 360 kts 283°
2026-04-15 12:52 49.83002 7.97258 19507 ft 363 kts 283°
2026-04-15 12:52 49.83599 7.93448 20108 ft 365 kts 283°
2026-04-15 12:53 49.84196 7.89648 20711 ft 368 kts 283°
2026-04-15 12:53 49.84802 7.85784 21335 ft 371 kts 283°
2026-04-15 12:53 49.85410 7.81886 21972 ft 372 kts 283°
2026-04-15 12:53 49.86021 7.77966 22621 ft 374 kts 283°
2026-04-15 12:54 49.86633 7.74049 23280 ft 374 kts 284°
2026-04-15 12:54 49.87258 7.70132 23924 ft 374 kts 283°
2026-04-15 12:54 49.87871 7.66211 24488 ft 374 kts 283°
2026-04-15 12:54 49.88471 7.62281 25062 ft 373 kts 283°
2026-04-15 12:55 49.89064 7.58414 25645 ft 372 kts 283°
2026-04-15 12:55 49.89667 7.54525 26245 ft 370 kts 284°
2026-04-15 12:55 49.90265 7.50648 26855 ft 368 kts 284°
2026-04-15 12:55 49.90853 7.46797 27473 ft 366 kts 284°
2026-04-15 12:56 49.91436 7.42981 28101 ft 362 kts 284°
2026-04-15 12:56 49.92014 7.39194 28746 ft 359 kts 284°
2026-04-15 12:56 49.92584 7.35445 29414 ft 354 kts 284°
2026-04-15 12:56 49.93146 7.31742 30086 ft 350 kts 285°
2026-04-15 12:57 49.93699 7.28090 30682 ft 344 kts 284°
2026-04-15 12:57 49.94242 7.24504 31260 ft 338 kts 284°
2026-04-15 12:57 49.94773 7.20981 31845 ft 332 kts 284°
2026-04-15 12:57 49.95292 7.17525 32448 ft 325 kts 284°
2026-04-15 12:58 49.95799 7.14151 33053 ft 317 kts 284°
2026-04-15 12:58 49.96292 7.10855 33665 ft 309 kts 284°
2026-04-15 12:58 49.96774 7.07637 33990 ft 311 kts 284°
2026-04-15 12:59 49.98311 6.97319 33983 ft 343 kts 284°
2026-04-15 12:59 49.98856 6.93644 33988 ft 354 kts 284°
2026-04-15 12:59 49.99270 6.89821 34001 ft 365 kts 273°
2026-04-15 13:00 49.99208 6.85809 33989 ft 376 kts 269°
2026-04-15 13:00 49.99078 6.81692 33992 ft 386 kts 269°
2026-04-15 13:00 49.98943 6.77471 33991 ft 397 kts 269°
2026-04-15 13:00 49.98818 6.73189 33992 ft 407 kts 269°
2026-04-15 13:01 49.98768 6.71433 33990 ft 411 kts 269°
2026-04-15 13:01 49.98489 6.62352 33982 ft 430 kts 269°
2026-04-15 13:02 49.98193 6.52870 33976 ft 445 kts 268°
2026-04-15 13:02 49.97886 6.43246 33972 ft 446 kts 268°
2026-04-15 13:03 49.97573 6.33628 33977 ft 444 kts 268°
2026-04-15 13:03 49.97251 6.24047 33975 ft 444 kts 268°
2026-04-15 13:04 49.96923 6.14482 33975 ft 444 kts 268°
2026-04-15 13:04 49.96631 6.04919 33980 ft 443 kts 274°
2026-04-15 13:05 49.98360 5.95860 33982 ft 446 kts 300°
2026-04-15 13:05 50.01733 5.89711 33980 ft 450 kts 313°
2026-04-15 13:06 50.06242 5.83020 33975 ft 450 kts 314°
2026-04-15 13:06 50.10741 5.76237 33979 ft 449 kts 313°
2026-04-15 13:07 50.15246 5.69469 33983 ft 449 kts 314°
2026-04-15 13:07 50.19739 5.62685 33970 ft 449 kts 313°
2026-04-15 13:08 50.24234 5.55882 33970 ft 450 kts 313°
2026-04-15 13:08 50.28706 5.49094 33972 ft 454 kts 313°
2026-04-15 13:09 50.33231 5.42209 33965 ft 452 kts 313°
2026-04-15 13:09 50.37736 5.35333 33962 ft 452 kts 312°
2026-04-15 13:10 50.42236 5.28445 33960 ft 452 kts 312°
2026-04-15 13:10 50.46717 5.21569 33960 ft 453 kts 312°
2026-04-15 13:11 50.51224 5.14632 33961 ft 453 kts 312°
2026-04-15 13:11 50.55735 5.07671 33965 ft 457 kts 311°
2026-04-15 13:12 50.60259 5.00667 33957 ft 455 kts 311°
2026-04-15 13:12 50.64773 4.93661 33958 ft 456 kts 311°
2026-04-15 13:13 50.69288 4.86636 33956 ft 456 kts 311°
2026-04-15 13:13 50.73803 4.79601 33953 ft 457 kts 311°
2026-04-15 13:14 50.78318 4.72539 33970 ft 456 kts 311°
2026-04-15 13:14 50.82807 4.65502 33947 ft 460 kts 310°
2026-04-15 13:15 50.87347 4.58363 33941 ft 459 kts 310°
2026-04-15 13:15 50.91431 4.50712 33949 ft 451 kts 297°
2026-04-15 13:16 50.94692 4.42218 33946 ft 451 kts 297°
2026-04-15 13:16 50.97957 4.33713 33948 ft 451 kts 297°
2026-04-15 13:17 51.01210 4.25189 33946 ft 451 kts 297°
2026-04-15 13:17 51.04442 4.16705 33945 ft 451 kts 296°
2026-04-15 13:18 51.07680 4.08169 33940 ft 451 kts 296°
2026-04-15 13:18 51.10913 3.99622 33938 ft 450 kts 296°
2026-04-15 13:19 51.14139 3.91062 33926 ft 450 kts 296°
2026-04-15 13:19 51.17360 3.82491 33924 ft 450 kts 296°
2026-04-15 13:20 51.20557 3.73949 33923 ft 452 kts 296°
2026-04-15 13:20 51.23501 3.65135 33919 ft 445 kts 285°
2026-04-15 13:21 51.24958 3.55626 33914 ft 439 kts 278°
2026-04-15 13:21 51.26229 3.46144 33914 ft 439 kts 277°
2026-04-15 13:22 51.27477 3.36590 33920 ft 439 kts 277°
2026-04-15 13:22 51.28704 3.27023 33919 ft 439 kts 276°
2026-04-15 13:23 51.29932 3.17434 33910 ft 440 kts 276°
2026-04-15 13:23 51.31148 3.07853 33912 ft 440 kts 276°
2026-04-15 13:24 51.32357 2.98263 33916 ft 439 kts 276°
2026-04-15 13:24 51.33555 2.88695 33906 ft 439 kts 276°
2026-04-15 13:25 51.34749 2.79082 33904 ft 442 kts 275°
2026-04-15 13:25 51.35936 2.69489 33910 ft 442 kts 275°
2026-04-15 13:26 51.37127 2.59842 33904 ft 442 kts 275°
2026-04-15 13:26 51.38304 2.50197 33903 ft 441 kts 275°
2026-04-15 13:27 51.38892 2.45366 33737 ft 444 kts 275°
2026-04-15 13:27 51.39478 2.40533 33313 ft 438 kts 275°
2026-04-15 13:27 51.40056 2.35789 32855 ft 429 kts 274°
2026-04-15 13:27 51.40617 2.31147 32364 ft 418 kts 274°
2026-04-15 13:28 51.41155 2.26627 31880 ft 408 kts 274°
2026-04-15 13:28 51.41686 2.22204 31406 ft 400 kts 274°
2026-04-15 13:28 51.42222 2.17880 30923 ft 392 kts 274°
2026-04-15 13:28 51.42747 2.13627 30448 ft 386 kts 274°
2026-04-15 13:29 51.43248 2.09474 29953 ft 384 kts 274°
2026-04-15 13:29 51.43749 2.05287 29413 ft 382 kts 274°
2026-04-15 13:29 51.44254 2.01119 28889 ft 380 kts 274°
2026-04-15 13:29 51.44754 1.96982 28375 ft 377 kts 274°
2026-04-15 13:30 51.45232 1.92862 27869 ft 374 kts 274°
2026-04-15 13:30 51.45703 1.88772 27406 ft 371 kts 273°
2026-04-15 13:30 51.46176 1.84711 26912 ft 369 kts 273°
2026-04-15 13:30 51.46650 1.80686 26406 ft 364 kts 273°
2026-04-15 13:31 51.47112 1.76728 25906 ft 359 kts 273°
2026-04-15 13:31 51.47563 1.72815 25413 ft 354 kts 273°
2026-04-15 13:31 51.48008 1.68947 24917 ft 350 kts 273°
2026-04-15 13:31 51.48449 1.65121 24439 ft 347 kts 274°
2026-04-15 13:32 51.48884 1.61336 23975 ft 343 kts 274°
2026-04-15 13:32 51.49313 1.57576 23488 ft 340 kts 274°
2026-04-15 13:32 51.49476 1.53877 22967 ft 324 kts 254°
2026-04-15 13:32 51.48911 1.50442 22447 ft 316 kts 246°
2026-04-15 13:33 51.48106 1.47243 21934 ft 310 kts 241°
2026-04-15 13:33 51.47165 1.44138 21395 ft 308 kts 239°
2026-04-15 13:33 51.46196 1.41103 20943 ft 304 kts 239°
2026-04-15 13:33 51.45298 1.38044 20465 ft 302 kts 243°
2026-04-15 13:34 51.44527 1.34917 20005 ft 300 kts 244°
2026-04-15 13:34 51.43781 1.31800 19526 ft 298 kts 244°
2026-04-15 13:34 51.43045 1.28716 19076 ft 295 kts 244°
2026-04-15 13:34 51.42386 1.25600 18633 ft 295 kts 249°
2026-04-15 13:35 51.41854 1.22429 18155 ft 294 kts 251°
2026-04-15 13:35 51.41362 1.19256 17654 ft 293 kts 251°
2026-04-15 13:35 51.40888 1.16126 17143 ft 291 kts 251°
2026-04-15 13:35 51.40412 1.12978 16653 ft 289 kts 251°
2026-04-15 13:36 51.39940 1.09855 16173 ft 288 kts 251°
2026-04-15 13:36 51.39468 1.06751 15696 ft 286 kts 251°
2026-04-15 13:36 51.38996 1.03650 15228 ft 284 kts 251°
2026-04-15 13:36 51.38529 1.00599 14767 ft 283 kts 251°
2026-04-15 13:37 51.38040 0.97560 14305 ft 281 kts 250°
2026-04-15 13:37 51.37513 0.94551 13880 ft 279 kts 249°
2026-04-15 13:37 51.36991 0.91570 13379 ft 277 kts 249°
2026-04-15 13:37 51.36473 0.88610 12883 ft 275 kts 249°
2026-04-15 13:38 51.35957 0.85675 12390 ft 273 kts 249°
2026-04-15 13:38 51.35440 0.82764 11909 ft 271 kts 249°
2026-04-15 13:38 51.34922 0.79879 11433 ft 269 kts 249°
2026-04-15 13:38 51.34409 0.77046 10969 ft 267 kts 249°
2026-04-15 13:39 51.33887 0.74203 10508 ft 265 kts 249°
2026-04-15 13:39 51.33362 0.71382 10048 ft 264 kts 249°
2026-04-15 13:39 51.32836 0.68583 9557 ft 262 kts 249°
2026-04-15 13:39 51.32308 0.65801 8831 ft 260 kts 249°
2026-04-15 13:40 51.31784 0.63044 8310 ft 258 kts 249°
2026-04-15 13:40 51.31263 0.60303 7807 ft 257 kts 249°
2026-04-15 13:40 51.30745 0.57578 7300 ft 255 kts 249°
2026-04-15 13:40 51.30229 0.54873 6818 ft 254 kts 249°
2026-04-15 13:41 51.29657 0.52208 6333 ft 251 kts 241°
2026-04-15 13:41 51.28758 0.49855 5836 ft 247 kts 233°
2026-04-15 13:41 51.27764 0.47670 5336 ft 245 kts 231°
2026-04-15 13:41 51.26741 0.45510 4914 ft 241 kts 231°
2026-04-15 13:42 51.25805 0.43326 4540 ft 237 kts 243°
2026-04-15 13:42 51.25361 0.40804 4155 ft 236 kts 255°
2026-04-15 13:42 51.25068 0.38245 3764 ft 232 kts 256°
2026-04-15 13:42 51.24795 0.35713 3379 ft 230 kts 255°
2026-04-15 13:43 51.24448 0.33270 3036 ft 214 kts 251°
2026-04-15 13:43 51.24082 0.31122 2672 ft 192 kts 250°
2026-04-15 13:43 51.23731 0.29113 2474 ft 184 kts 250°
2026-04-15 13:43 51.23386 0.27138 2477 ft 174 kts 250°
2026-04-15 13:44 51.23065 0.25397 2483 ft 158 kts 248°
2026-04-15 13:44 51.22744 0.23705 2486 ft 156 kts 248°
2026-04-15 13:44 51.22447 0.22091 2508 ft 151 kts 248°
2026-04-15 13:44 51.22151 0.20523 2516 ft 149 kts 248°
2026-04-15 13:45 51.21852 0.18939 2528 ft 149 kts 248°
2026-04-15 13:45 51.21557 0.17371 2549 ft 149 kts 248°
2026-04-15 13:45 51.21264 0.15820 2560 ft 145 kts 248°
2026-04-15 13:47 51.19264 0.05045 2666 ft 145 kts 248°
2026-04-15 13:47 51.18969 0.03503 2571 ft 145 kts 248°
2026-04-15 13:47 51.18676 0.01972 2467 ft 143 kts 248°
2026-04-15 13:48 51.18399 0.00489 2359 ft 134 kts 248°
2026-04-15 13:48 51.18088 -0.00816 2310 ft 120 kts 240°
2026-04-15 13:48 51.17718 -0.01955 2129 ft 118 kts 239°
2026-04-15 13:48 51.17357 -0.03157 2026 ft 122 kts 240°
2026-04-15 13:49 51.16997 -0.04406 1930 ft 124 kts 240°
2026-04-15 13:49 51.16693 -0.05659 1849 ft 120 kts 245°
2026-04-15 13:49 51.16501 -0.06932 1758 ft 117 kts 252°
2026-04-15 13:49 51.16328 -0.08214 1599 ft 119 kts 250°
2026-04-15 13:50 51.16162 -0.09493 1506 ft 117 kts 251°
2026-04-15 13:50 51.15995 -0.10733 1336 ft 111 kts 249°
2026-04-15 13:50 51.15812 -0.11910 1139 ft 110 kts 249°
2026-04-15 13:50 51.15630 -0.13132 970 ft 116 kts 247°
2026-04-15 13:51 51.15454 -0.14365 699 ft 116 kts 249°
2026-04-15 13:51 51.15335 -0.15225 540 ft 120 kts 250°
2026-04-15 13:51 51.15087 -0.16946 270 ft 117 kts 258°
2026-04-15 13:51 51.14946 -0.18056 208 ft 77 kts 261°
2026-04-15 13:52 51.14873 -0.18592 211 ft 23 kts 257°
2026-04-15 13:52 51.14843 -0.18805 203 ft 20 kts 257°
2026-04-15 13:52 51.14823 -0.18954 214 ft 21 kts 257°
2026-04-15 13:52 51.14802 -0.19187 213 ft 21 kts 262°
2026-04-15 13:53 51.14834 -0.19401 216 ft 21 kts 301°
2026-04-15 13:53 51.14861 -0.19461 213 ft 0 kts 308°
2026-04-15 13:54 51.14880 -0.19491 210 ft 9 kts 323°
2026-04-15 13:55 51.14941 -0.19429 216 ft 16 kts 73°
2026-04-15 13:55 51.15002 -0.19264 215 ft 16 kts
2026-04-15 13:55 51.15069 -0.19181 206 ft 16 kts 72°
2026-04-15 13:55 51.15101 -0.18939 218 ft 28 kts 79°
2026-04-15 13:56 51.15143 -0.18635 209 ft 31 kts 77°
2026-04-15 13:56 51.15180 -0.18325 209 ft 23 kts 80°
2026-04-15 13:56 51.15227 -0.18108 214 ft 18 kts 31°
2026-04-15 13:56 51.15367 -0.18136 211 ft 24 kts 348°
2026-04-15 13:57 51.15464 -0.18068 215 ft 16 kts 76°
2026-04-15 13:57 51.15494 -0.17850 212 ft 24 kts 78°
2026-04-15 13:57 51.15533 -0.17562 214 ft 27 kts 78°
2026-04-15 13:57 51.15602 -0.17456 211 ft 12 kts 350°
2026-04-15 13:58 51.15706 -0.17493 208 ft 19 kts 347°
2026-04-15 13:58 51.15776 -0.17407 213 ft 17 kts 74°
2026-04-15 13:58 51.15798 -0.17277 211 ft 11 kts 64°
2026-04-15 13:58 51.15864 -0.17239 211 ft 8 kts 349°
2026-04-15 13:59 51.15879 -0.17244 208 ft 0 kts 348°